Regional Weather Roundup
Issued by NWS Upton, NY

Current Version | Previous Version | Graphics & Text | Print | Product List | Glossary Off
Versions: 1 2 3 4 5 6 7 8 9 10 11 12 13 14 15 16 17 18 19 20 21 22 23 24 25 26 27 28 29 30 31 32 33 34 35 36 37 38 39 40 41 42 43 44 45 46 47 48 49 50

081
ASUS41 KOKX 290304
RWROKX

REGIONAL WEATHER ROUNDUP
NATIONAL WEATHER SERVICE NEW YORK NY
1100 PM EDT THU JUL 28 2016

NOTE: "FAIR" INDICATES FEW OR NO CLOUDS BELOW 12,000 FEET WITH NO
SIGNIFICANT WEATHER AND/OR OBSTRUCTIONS TO VISIBILITY.

NYZ071-072-176-178-NJZ106-104-290400-
NEW YORK CITY METRO AREA

CITY           SKY/WX    TMP DP  RH WIND       PRES   REMARKS
Central Park   CLOUDY    79  68  69 VRB5      29.91R HAZE
LaGuardia APRT LGT RAIN  80  69  69 NW7       29.87R
Kennedy INTL   CLOUDY    80  67  64 W6        29.88S
Newark/Liberty LGT RAIN  78  71  79 VRB6      29.87R
Bronx Bot Gard   N/A     79  68  69 NW2       29.88R
Wall St Helipt MOCLDY    79  70  73 W3        29.88S
Teterboro      LGT RAIN  78  70  76 W5        29.87R
$$

NYZ177-179-078>081-290400-
LONG ISLAND NEW YORK

CITY           SKY/WX    TMP DP  RH WIND       PRES   REMARKS
Farmingdale    CLOUDY    79  68  69 NW3       29.87F
MacArthur/ISP  CLOUDY    78  70  76 CALM      29.87F
Shirley        MOCLDY    77  72  84 CALM      29.88F
Riverhead      NOT AVBL
Westhampton    CLOUDY    77  74  90 CALM      29.90S FOG
Southhampton     N/A     77  75  94 SW2       29.84F
Bridgehampton    N/A     75  75 100 CALM      29.88S
East Hampton   CLOUDY    75  74  96 CALM      29.88F FOG
Montauk          N/A     75  75 100 CALM      29.90S
$$

NYZ052-065-067-290400-
HUDSON VALLEY

CITY           SKY/WX    TMP DP  RH WIND       PRES   REMARKS
White Plains   DRIZZLE   77  70  79 W5        29.89S
Newburgh       NOT AVBL
Montgomery     LGT RAIN  73  71  93 S6        29.91R
Poughkeepsie   LGT RAIN  76  70  82 S3        29.88S
Albany         CLOUDY    75  66  73 N5        29.88R
$$

NJZ001-105-106-008-010-013-015-019>022-104-290400-
NEW JERSEY

CITY           SKY/WX    TMP DP  RH WIND       PRES   REMARKS
Newark/Liberty LGT RAIN  78  71  79 VRB6      29.87R
Teterboro      LGT RAIN  78  70  76 W5        29.87R
Caldwell       LGT RAIN  77  73  87 CALM      29.89R
Morristown     RAIN      73  70  88 CALM      29.89R
Somerville     CLOUDY    74  72  93 CALM      29.86S FOG
Linden         CLOUDY    78  70  78 NW5       29.89S
Sussex         LGT RAIN  72  72 100 CALM      29.91R FOG
Abdover          N/A     73  71  93 CALM      29.92R
Trenton        CLOUDY    74  72  93 CALM      29.88S
Millville      LGT RAIN  75  72  90 NW5       29.88R FOG
Atlantic City  CLOUDY    74  72  93 N5        29.85S
Wrightstown    NOT AVBL
Toms River     CLOUDY    73  72  96 N3        29.89R
Belmar         CLOUDY    73  70  90 W3        29.89S
$$

PAZ047>061-062-071-290400-
EASTERN PENNSYLVANIA

CITY           SKY/WX    TMP DP  RH WIND       PRES   REMARKS
Philadelphia   LGT RAIN  76  72  87 N3        29.87F
Allentown      LGT RAIN  74  71  91 CALM      29.89S FOG
Scranton       CLOUDY    74  69  85 CALM      29.92S
$$

CTZ002-004>006-009-010-012-RIZ004-006-007-MAZ004-011-015-290400-
SOUTHERN NEW ENGLAND
 IN CT

CITY           SKY/WX    TMP DP  RH WIND       PRES   REMARKS
Bradley INTL   CLOUDY    81  67  62 S7        29.88R
Hartford       CLOUDY    82  71  69 S3        29.86S
Danbury        LGT RAIN  75  70  84 SW3       29.90S
Wtrbury/Oxford   N/A     75  66  73 CALM      29.93S
Bridgeport     CLOUDY    80  72  76 CALM      29.87S
Meriden        CLOUDY    79  70  74 S3        29.88R
New Haven      CLOUDY    78  71  79 VRB5      29.88R
Chester        FAIR      77  73  88 CALM      29.90S
Groton         CLOUDY    77  73  87 CALM      29.88R
Wilimantic     CLOUDY    79  73  82 CALM      29.89S

 IN RI

CITY           SKY/WX    TMP DP  RH WIND       PRES   REMARKS
Providence     CLOUDY    77  73  87 S6        29.89S
Block Island   CLOUDY    76  75  97 S7        29.89F FOG
Westerly       CLOUDY    75  71  87 CALM      29.90R FOG
 IN MA

CITY           SKY/WX    TMP DP  RH WIND       PRES   REMARKS
Boston         CLOUDY    79  71  76 S9        29.87R
Worchester     CLOUDY    74  66  76 SW6       29.92R
Westfield      CLOUDY    80  65  59 CALM      29.87R
Provincetown   CLOUDY    74  73  97 S10       29.90R
Nantucket      CLOUDY    71  69  93 S8        29.90S
$$

ANZ330-335-338-340-345-350-353-355-290400-
COASTAL MARINE OBSERVATIONS


STATION/POSITION TIME  SKY/WX   TEMP    WIND        PRES    VSBY  WAVE
                                AIR SEA DIR/SP/G                  HT/PER
                 (UTC)          (F)     (DEG/KT/KT) (MB)    (MI)  (FT/S)
NY HARB ENTRANCE 0150            74 73  330/  6/  8 1011.5          1/ 3
20S FIRE ISLAND  0150            78 78  260/  4/  6 1011.6          1/ 6
GREAT SOUTH BAY  NOT AVBL
23 SSW MONTAUK P 0150            74 73  200/  4/  4 1012.5          1/ 6
15 E BARNEGAT LI 0200               79                N/A           1/ 8
HUDSON CANYON    0150            80 80              1012.2          1/ 8
KINGS POINT      0200                               1011.3
EXECUTION ROCKS  NOT AVBL
CENTRAL LI SOUND NOT AVBL
EASTERN LI SOUND NOT AVBL
ROBBINS REEF     0212            78                   N/A
$$


>>>>>>>>>>>>>>>>>>>>>>>>>>>> KEY <<<<<<<<<<<<<<<<<<<<<<<<<<<
>                                                          <
>     SKY/WX - Sky Condition/Present Weather               <
>     TMP    - Temperature in Fahrenheit                   <
>     DP     - Dew Point in Fahrenheit                     <
>     RH     - Relative Humidity in Percent                <
>     WIND   - Direction (from) and Speed in MPH           <
>     PRES   - Mean Sea Level Pressure (inches of Hg)      <
>     WCI    - Wind Chill Index                            <
>     VSB    - VISIBILITY IN MILES                         <
>     HX     - HEAT INDEX                                  <
>     TC     - TEMPERATURE IN CELSIUS                      <
>     VRB    - VARIABLE WIND DIRECTION                     <
>                                                          <
>>>>>>>>>>>>>>>>>>>>>>>>>>>> KEY <<<<<<<<<<<<<<<<<<<<<<<<<<<




USA.gov is the U.S. government's official web portal to all federal, state and local government web resources and services.